This demonstration page uses our WeatherBlox Daily Observations layout. Learn more.

Left ArrowRight Arrow

39.92423, -83.80882

Hourly Observations for March 8, 2022

Temp ( °F °C ) Dew Point ( °F °C ) Humidity (%) Winds ( mph kmh ) Pressure ( in mb ) Visibility ( mi km ) Precip ( " mm )
12:56 am 00:56 Cloudy 34 1.1 29 -1.7 82 82 NW 7 11 30.21 1023 10 16 0.00 0.00
1:38 am 01:38 Cloudy 34 1 28 -2 81 81 NW 8 13 30.23 1024 10 16 0.00 0.00
1:56 am 01:56 Cloudy 34 1.1 29 -1.7 82 82 NW 7 11 30.22 1023 10 16 0.00 0.00
2:56 am 02:56 Cloudy 34 1.1 30 -1.1 85 85 NW 6 9 30.22 1023 10 16 0.00 0.00
3:56 am 03:56 Cloudy 33 0.6 28 -2.2 82 82 NW 8 13 30.23 1024 10 16 0.00 0.00
4:56 am 04:56 Cloudy 33 0.6 28 -2.2 82 82 NW 8 13 30.24 1024 10 16 0.00 0.00
5:06 am 05:06 Cloudy 34 1 27 -3 75 75 NW 7 11 30.26 1025 10 16 0.00 0.00
5:56 am 05:56 Cloudy 33 0.6 26 -3.3 75 75 N 5 7 30.25 1025 10 16 0.00 0.00
6:39 am 06:39 Cloudy 34 1 28 -2 81 81 NW 3 6 30.28 1025 10 16 0.00 0.00
6:56 am 06:56 Cloudy 33 0.6 26 -3.3 75 75 NNW 5 7 30.27 1025 10 16 0.00 0.00
7:56 am 07:56 Cloudy 33 0.6 30 -1.1 89 89 W 3 6 30.28 1026 10 16 0.00 0.00
8:56 am 08:56 Cloudy 33 0.6 30 -1.1 89 89 W 3 6 30.28 1025 10 16 0.00 0.00
9:19 am 09:19 Cloudy 34 1 30 -1 87 87 WNW 3 6 30.30 1026 10 16 0.00 0.00
9:53 am 09:53 Cloudy 34 1 30 -1 87 87 Calm 30.29 1026 10 16 0.00 0.00
9:56 am 09:56 Cloudy 34 1.1 30 -1.1 85 85 Calm 30.28 1025 10 16 0.00 0.00
10:31 am 10:31 Cloudy 34 1 28 -2 81 81 Calm 30.30 1026 10 16 0.00 0.00
10:56 am 10:56 Cloudy 34 1.1 28 -2.2 79 79 Calm 30.28 1025 10 16 0.00 0.00
11:36 am 11:36 Cloudy 36 2 27 -3 70 70 Calm 30.28 1025 10 16 0.00 0.00
11:56 am 11:56 Cloudy 35 1.7 26 -3.3 70 70 Calm 30.26 1025 10 16 0.00 0.00
12:39 pm 12:39 Cloudy 37 3 27 -3 65 65 VRB 6 9 30.25 1024 10 16 0.00 0.00
12:56 pm 12:56 Cloudy 36 2.2 26 -3.3 67 67 Calm 30.24 1024 10 16 0.00 0.00
1:56 pm 13:56 Cloudy 37 2.8 27 -2.8 67 67 VRB 3 6 30.20 1023 10 16 0.00 0.00
2:56 pm 14:56 Cloudy 37 2.8 27 -2.8 67 67 Calm 30.18 1022 10 16 0.00 0.00
3:34 pm 15:34 Cloudy 37 3 28 -2 70 70 S 5 7 30.17 1022 10 16 0.00 0.00
3:56 pm 15:56 Cloudy 38 3.3 27 -2.8 65 65 Calm 30.15 1021 10 16 0.00 0.00
4:56 pm 16:56 Cloudy 38 3.3 28 -2.2 68 68 SSE 3 6 30.15 1021 10 16 0.00 0.00
5:56 pm 17:56 Cloudy 37 2.8 28 -2.2 70 70 ESE 3 6 30.14 1021 10 16 0.00 0.00
6:46 pm 18:46 Cloudy 36 2 30 -1 81 81 E 6 9 30.13 1020 10 16 0.00 0.00
6:56 pm 18:56 Mostly Cloudy 35 1.7 30 -1.1 82 82 ENE 7 11 30.09 1019 10 16 0.00 0.00
7:08 pm 19:08 Partly Cloudy 36 2 30 -1 81 81 E 6 9 30.09 1019 10 16 0.00 0.00
7:56 pm 19:56 Clear 35 1.7 30 -1.1 82 82 SE 5 7 30.10 1019 10 16 0.00 0.00
8:56 pm 20:56 Clear 34 1.1 32 0 92 92 ESE 5 7 30.09 1019 10 16 0.00 0.00
9:56 pm 21:56 Clear 35 1.7 30 -1.1 82 82 Calm 30.11 1020 10 16 0.00 0.00
10:56 pm 22:56 Clear 33 0.6 33 0.6 100 100 N 5 7 30.08 1019 10 16 0.00 0.00
11:56 pm 23:56 Clear 33 0.6 33 0.6 100 100 E 3 6 30.04 1017 10 16 0.00 0.00

Powered by AerisWeather